Showing default

GGSE 3, 1292

Orbit data source: Space-Track

GGSE 3, 1292 is an American payload satellite in LEO that was launched on Tue, 09 Mar 1965 UTC via a THOR SLV-2 AGENA D launch vehicle from the Air Force Western Test Range (AFWTR). Payload-class satellites include a variety of spacecraft equipped with specific instruments for various scientific and technological missions. These include communications satellites like Starlink; space stations such as the ISS; scientific satellites like the Hubble; Earth observation satellites from companies like Planet Labs, Umbra, and HawkEye 360; GPS; miniature CubeSats for education and research; and military/defense satellites.

Loading next visibility...
Identifier
1292, 1965-016C
Orbit
LEO
Country
Flag of USUS
Related business
Manufacturer
NRL
Mission
Defense Technology
Bus & Motor
NRL 24", Unknown motor
Mass
59 kg wet, 59 kg dry
Launch date (UTC)
1965-03-09 (60 years ago)
Launch vehicle
THOR SLV-2 AGENA D
Launch site
Air Force Western Test Range (AFWTR)
Object type
Payload
Rocket body
Debris
Shape & HBR
Sphere + 3 Ant, 15.5 m
Radar Cross Section
2.515 m², Medium (>0.1 m² and < 1m²)

Expand to show TLE details & history
Last TLE update: 21 hours ago

TLE from 21 hours ago
0 GGSE 3
1 01292U 65016C   25242.32288553  .00000272  00000-0  21480-3 0  9992
2 01292  70.0753 216.9067 0021203 328.3128  31.6703 14.01454950 83817
Epoch: 2025-08-30T07:44Z
TLE epoch observation values (Epoch: 2025-08-30T07:44:57.309Z)
Latitude
-0.00006°
Longitude
121.90905°
Altitude
877.978 km
Speed
7.42 km/s
True Right ascension
14h 27m 37s
True Declination
0° 00' 00"
Sunlit
Object was in daylight at epoch
Visualization orbit readout
Latitude
Unknown
Longitude
Unknown
Altitude
Unknown
Speed
Unknown
Apparent Right ascension
Unknown
Apparent Declination
Unknown
Sunlit
N/A
Visualization observer readout
Local Sidereal Time
20:26:20
Azimuth
Unknown
Elevation
Unknown
Doppler factor
Unknown
Orbital elements
Apogee altitude
902.195 km
Perigee altitude
871.388 km
Semi-major axis
7,264.929 km
Eccentricity
0.00212
Inclination
70.0753°
RAAN
216.9067°
Arg. of periapsis
328.3128°
True anomaly
31.79815°
Mean anomaly
31.6703°
Eccentric anomaly
31.7342°
Mean motion
3.50507 °/min
Orbital period
102.71 mins
BSTAR
0.0002148
Loading maneuver chart data...
Computing Atmospheric mass density...
Loading historical data...
Loading historical data...
Loading historical data...
Loading historical data...
Loading historical data...
Loading historical data...
Loading historical data...

Documentation

Showing up to 5 results
|